,,Stat6,,Stat2,,Stat8,,Stat9,,Stat10,,Wind1,,Wind1,
time,status,PA1M_AVG,status,PR1M_SUM,status,RH1M_AVG,status,SR1M_AVG,status,TA1M_AVG,status,W1dAve1m,status,W1sAve1m,
2008-10-14, 00:00:00,VALID,917.738,VALID,0,VALID,100,VALID,-0.0339617,VALID,19.554,VALID,153,VALID,3.20684,
2008-10-14, 00:01:00,VALID,917.724,VALID,0,VALID,99.9743,VALID,0,VALID,19.5763,VALID,147,VALID,2.66797,
2008-10-14, 00:02:00,VALID,917.698,VALID,0.2,VALID,99.8833,VALID,0,VALID,19.5857,VALID,157,VALID,2.45713,
2008-10-14, 00:03:00,VALID,917.68,VALID,0,VALID,99.8362,VALID,0.0169808,VALID,19.5825,VALID,152,VALID,1.18973,
2008-10-14, 00:04:00,VALID,917.675,VALID,0,VALID,99.8744,VALID,-0.0509425,VALID,19.5605,VALID,151,VALID,0.917151,
2008-10-14, 00:05:00,VALID,917.646,VALID,0,VALID,99.984,VALID,-0.101885,VALID,19.5585,VALID,159,VALID,1.91164,
2008-10-14, 00:06:00,VALID,917.64,VALID,0,VALID,100,VALID,-0.118866,VALID,19.5418,VALID,154,VALID,2.00093,
2008-10-14, 00:07:00,VALID,917.635,VALID,0.2,VALID,100,VALID,-0.118866,VALID,19.5321,VALID,152,VALID,1.31458,
2008-10-14, 00:08:00,VALID,917.638,VALID,0,VALID,100,VALID,-0.101885,VALID,19.5126,VALID,155,VALID,1.18182,
2008-10-14, 00:09:00,VALID,917.619,VALID,0,VALID,99.9832,VALID,-0.0849042,VALID,19.5318,VALID,160,VALID,1.98971,
2008-10-14, 00:10:00,VALID,917.613,VALID,0,VALID,99.8782,VALID,-0.101885,VALID,19.571,VALID,161,VALID,1.81845,
2008-10-14, 00:11:00,VALID,917.619,VALID,0,VALID,99.896,VALID,-0.0849042,VALID,19.5807,VALID,163,VALID,0.228981,
2008-10-14, 00:12:00,VALID,917.634,VALID,0,VALID,99.8731,VALID,-0.0849042,VALID,19.5678,VALID,163,VALID,1.34896,
2008-10-14, 00:13:00,VALID,917.618,VALID,0.2,VALID,99.8845,VALID,-0.101885,VALID,19.5872,VALID,148,VALID,1.42264,
2008-10-14, 00:14:00,VALID,917.604,VALID,0,VALID,99.8693,VALID,-0.101885,VALID,19.5875,VALID,159,VALID,0.928646,
2008-10-14, 00:15:00,VALID,917.579,VALID,0,VALID,99.9529,VALID,-0.101885,VALID,19.5907,VALID,165,VALID,0.304688,
2008-10-14, 00:16:00,VALID,917.564,VALID,0,VALID,99.8642,VALID,-0.101885,VALID,19.5678,VALID,160,VALID,0.0600229,
2008-10-14, 00:17:00,VALID,917.554,VALID,0,VALID,99.8706,VALID,-0.101885,VALID,19.5613,VALID,165,VALID,1.03888,
2008-10-14, 00:18:00,VALID,917.554,VALID,0,VALID,99.8756,VALID,-0.118866,VALID,19.571,VALID,163,VALID,1.59282,
2008-10-14, 00:19:00,VALID,917.562,VALID,0,VALID,99.9891,VALID,-0.0509425,VALID,19.5965,VALID,152,VALID,0.0117188,
2008-10-14, 00:20:00,VALID,917.556,VALID,0.2,VALID,99.9728,VALID,0,VALID,19.5857,VALID,129,VALID,0.494004,
2008-10-14, 00:21:00,VALID,917.557,VALID,0,VALID,99.9463,VALID,0,VALID,19.5922,VALID,145,VALID,0.650484,
2008-10-14, 00:22:00,VALID,917.548,VALID,0,VALID,99.9023,VALID,0,VALID,19.6052,VALID,158,VALID,0.654251,
2008-10-14, 00:23:00,VALID,917.53,VALID,0,VALID,99.8782,VALID,0,VALID,19.6117,VALID,153,VALID,1.72542,
2008-10-14, 00:24:00,VALID,917.503,VALID,0.2,VALID,99.7904,VALID,-0.0169808,VALID,19.6441,VALID,174,VALID,1.93296,
2008-10-14, 00:25:00,VALID,917.506,VALID,0,VALID,99.6785,VALID,0,VALID,19.6701,VALID,170,VALID,1.51722,
2008-10-14, 00:26:00,VALID,917.498,VALID,0,VALID,99.5717,VALID,0,VALID,19.6733,VALID,174,VALID,1.40699,
2008-10-14, 00:27:00,VALID,917.502,VALID,0,VALID,99.5488,VALID,-0.0169808,VALID,19.6763,VALID,166,VALID,1.85621,
2008-10-14, 00:28:00,VALID,917.486,VALID,0,VALID,99.5361,VALID,0,VALID,19.6731,VALID,159,VALID,1.85356,
2008-10-14, 00:29:00,VALID,917.47,VALID,0,VALID,99.6162,VALID,0,VALID,19.6604,VALID,157,VALID,0.803089,
2008-10-14, 00:30:00,VALID,917.443,VALID,0,VALID,99.6747,VALID,0,VALID,19.6441,VALID,178,VALID,1.52191,
2008-10-14, 00:31:00,VALID,917.425,VALID,0.2,VALID,99.7116,VALID,0.0169808,VALID,19.6342,VALID,153,VALID,1.12035,
2008-10-14, 00:32:00,VALID,917.408,VALID,0,VALID,99.8032,VALID,0.0169808,VALID,19.6182,VALID,177,VALID,0.464472,
2008-10-14, 00:33:00,VALID,917.355,VALID,0,VALID,99.8273,VALID,0.0169808,VALID,19.605,VALID,180,VALID,1.57013,
2008-10-14, 00:34:00,VALID,917.318,VALID,0,VALID,99.9023,VALID,-0.0169808,VALID,19.6112,VALID,194,VALID,1.36533,
2008-10-14, 00:35:00,VALID,917.31,VALID,0,VALID,99.972,VALID,-0.0339617,VALID,19.6052,VALID,174,VALID,0.234197,
2008-10-14, 00:36:00,VALID,917.285,VALID,0,VALID,99.9906,VALID,-0.0339617,VALID,19.5987,VALID,180,VALID,0.464935,
2008-10-14, 00:37:00,VALID,917.255,VALID,0.2,VALID,100,VALID,-0.0339617,VALID,19.582,VALID,191,VALID,0.368823,
2008-10-14, 00:38:00,VALID,917.237,VALID,0,VALID,100,VALID,-0.0339617,VALID,19.5828,VALID,184,VALID,0.793064,
2008-10-14, 00:39:00,VALID,917.215,VALID,0,VALID,100,VALID,-0.0169808,VALID,19.5825,VALID,192,VALID,1.18828,
2008-10-14, 00:40:01,VALID,917.189,VALID,0,VALID,100,VALID,-0.0169808,VALID,19.566,VALID,196,VALID,0.773838,
2008-10-14, 00:41:00,VALID,917.172,VALID,0,VALID,100,VALID,-0.0339617,VALID,19.5533,VALID,183,VALID,0.275298,
2008-10-14, 00:42:00,VALID,917.149,VALID,0,VALID,100,VALID,-0.0339617,VALID,19.5436,VALID,197,VALID,0.0418527,
2008-10-14, 00:43:01,VALID,917.116,VALID,0.2,VALID,100,VALID,-0.0339617,VALID,19.5468,VALID,187,VALID,0.425694,
2008-10-14, 00:44:01,VALID,917.088,VALID,0,VALID,100,VALID,-0.0339617,VALID,19.5533,VALID,191,VALID,0.503815,
2008-10-14, 00:45:00,VALID,917.078,VALID,0,VALID,100,VALID,-0.0509425,VALID,19.5531,VALID,184,VALID,0.645833,
2008-10-14, 00:46:01,VALID,917.063,VALID,0,VALID,100,VALID,-0.0679233,VALID,19.5533,VALID,157,VALID,0.279018,
2008-10-14, 00:47:00,VALID,917.037,VALID,0,VALID,100,VALID,0,VALID,19.5568,VALID,168,VALID,0.550037,
2008-10-14, 00:48:01,VALID,917.027,VALID,0,VALID,100,VALID,-0.0339617,VALID,19.5468,VALID,148,VALID,0.0402514,
2008-10-14, 00:49:01,VALID,917.013,VALID,0.2,VALID,100,VALID,-0.0339617,VALID,19.5373,VALID,135,VALID,0,
2008-10-14, 00:50:00,VALID,916.986,VALID,0,VALID,100,VALID,-0.0169808,VALID,19.5081,VALID,147,VALID,0.198047,
2008-10-14, 00:51:01,VALID,916.985,VALID,0,VALID,100,VALID,-0.0169808,VALID,19.4814,VALID,146,VALID,0.450868,
2008-10-14, 00:52:00,VALID,916.974,VALID,0,VALID,100,VALID,-0.0169808,VALID,19.4847,VALID,136,VALID,0.353277,
2008-10-14, 00:53:00,VALID,916.965,VALID,0,VALID,100,VALID,-0.0169808,VALID,19.4914,VALID,140,VALID,1.07757,
2008-10-14, 00:54:00,VALID,916.966,VALID,0,VALID,100,VALID,0,VALID,19.4879,VALID,138,VALID,0.673921,
2008-10-14, 00:55:00,VALID,916.965,VALID,0.2,VALID,100,VALID,-0.0339617,VALID,19.4914,VALID,129,VALID,0.0673611,
2008-10-14, 00:56:00,VALID,916.981,VALID,0,VALID,100,VALID,0,VALID,19.4814,VALID,130,VALID,0.0701172,
2008-10-14, 00:57:01,VALID,916.986,VALID,0,VALID,100,VALID,0,VALID,19.4912,VALID,124,VALID,0.072516,
2008-10-14, 00:58:01,VALID,916.985,VALID,0,VALID,100,VALID,0,VALID,19.5271,VALID,136,VALID,0,
2008-10-14, 00:59:00,VALID,916.964,VALID,0,VALID,100,VALID,-0.0509425,VALID,19.5141,VALID,144,VALID,0.353711,
2008-10-14, 01:00:00,VALID,916.97,VALID,0.2,VALID,100,VALID,-0.0169808,VALID,19.5111,VALID,151,VALID,1.06372,
2008-10-14, 01:01:00,VALID,916.959,VALID,0,VALID,100,VALID,-0.0339617,VALID,19.5241,VALID,166,VALID,1.09226,
2008-10-14, 01:02:00,VALID,916.947,VALID,0,VALID,100,VALID,-0.0509425,VALID,19.5403,VALID,150,VALID,0.200581,
2008-10-14, 01:03:01,VALID,916.929,VALID,0,VALID,100,VALID,0,VALID,19.5306,VALID,147,VALID,0,
2008-10-14, 01:04:00,VALID,916.931,VALID,0,VALID,100,VALID,-0.0339617,VALID,19.5371,VALID,161,VALID,0,
2008-10-14, 01:05:00,VALID,916.932,VALID,0,VALID,100,VALID,-0.0169808,VALID,19.5436,VALID,170,VALID,0,
2008-10-14, 01:06:01,VALID,916.93,VALID,0.2,VALID,100,VALID,-0.0339617,VALID,19.5366,VALID,174,VALID,0,
2008-10-14, 01:07:01,VALID,916.94,VALID,0,VALID,100,VALID,-0.0339617,VALID,19.5368,VALID,184,VALID,0,
2008-10-14, 01:08:00,VALID,916.944,VALID,0,VALID,100,VALID,-0.0169808,VALID,19.5141,VALID,184,VALID,0,
2008-10-14, 01:09:01,VALID,916.942,VALID,0,VALID,100,VALID,-0.0509425,VALID,19.5079,VALID,184,VALID,0,
2008-10-14, 01:10:00,VALID,916.938,VALID,0,VALID,100,VALID,-0.0679233,VALID,19.4817,VALID,200,VALID,0,
2008-10-14, 01:11:01,VALID,916.951,VALID,0,VALID,100,VALID,-0.0509425,VALID,19.4754,VALID,210,VALID,0,
2008-10-14, 01:12:00,VALID,916.959,VALID,0,VALID,100,VALID,0,VALID,19.4784,VALID,221,VALID,0,
2008-10-14, 01:13:00,VALID,916.96,VALID,0.2,VALID,100,VALID,0,VALID,19.4784,VALID,216,VALID,0,
2008-10-14, 01:14:01,VALID,916.958,VALID,0,VALID,100,VALID,-0.0169808,VALID,19.4522,VALID,207,VALID,0,
2008-10-14, 01:15:00,VALID,916.949,VALID,0,VALID,100,VALID,-0.0509425,VALID,19.443,VALID,247,VALID,0,
2008-10-14, 01:16:01,VALID,916.94,VALID,0,VALID,100,VALID,-0.0169808,VALID,19.4333,VALID,244,VALID,0,
2008-10-14, 01:17:01,VALID,916.938,VALID,0,VALID,100,VALID,0,VALID,19.4328,VALID,226,VALID,0,
2008-10-14, 01:18:00,VALID,916.916,VALID,0.2,VALID,100,VALID,-0.0339617,VALID,19.423,VALID,223,VALID,0,
2008-10-14, 01:19:00,VALID,916.904,VALID,0,VALID,100,VALID,-0.0849042,VALID,19.4208,VALID,236,VALID,0.0012718,
2008-10-14, 01:20:01,VALID,916.88,VALID,0,VALID,100,VALID,-0.101885,VALID,19.4248,VALID,218,VALID,0.0476017,
2008-10-14, 01:21:01,VALID,916.854,VALID,0,VALID,100,VALID,-0.101885,VALID,19.4148,VALID,230,VALID,0,
2008-10-14, 01:22:01,VALID,916.824,VALID,0,VALID,100,VALID,-0.118866,VALID,19.4085,VALID,249,VALID,0.305489,
2008-10-14, 01:23:01,VALID,916.8,VALID,0,VALID,100,VALID,-0.169808,VALID,19.4025,VALID,235,VALID,0.326672,
2008-10-14, 01:24:01,VALID,916.762,VALID,0,VALID,100,VALID,-0.186789,VALID,19.3926,VALID,226,VALID,0.0104802,
2008-10-14, 01:25:01,VALID,916.778,VALID,0,VALID,100,VALID,-0.152827,VALID,19.3858,VALID,230,VALID,0.000520833,
2008-10-14, 01:26:01,VALID,916.752,VALID,0,VALID,100,VALID,-0.135847,VALID,19.3993,VALID,204,VALID,0.164249,
2008-10-14, 01:27:01,VALID,916.754,VALID,0.2,VALID,100,VALID,-0.118866,VALID,19.3891,VALID,190,VALID,0,
2008-10-14, 01:28:01,VALID,916.74,VALID,0,VALID,100,VALID,-0.118866,VALID,19.3828,VALID,183,VALID,0,
2008-10-14, 01:29:01,VALID,916.747,VALID,0,VALID,100,VALID,-0.152827,VALID,19.3831,VALID,213,VALID,0,
2008-10-14, 01:30:01,VALID,916.743,VALID,0,VALID,100,VALID,-0.186789,VALID,19.3701,VALID,224,VALID,0,
2008-10-14, 01:31:01,VALID,916.742,VALID,0,VALID,100,VALID,-0.135847,VALID,19.3698,VALID,281,VALID,0,
2008-10-14, 01:32:00,VALID,916.753,VALID,0,VALID,100,VALID,-0.118866,VALID,19.3828,VALID,30,VALID,0,
2008-10-14, 01:33:00,VALID,916.771,VALID,0,VALID,100,VALID,-0.101885,VALID,19.3856,VALID,42,VALID,0,
2008-10-14, 01:34:00,VALID,916.767,VALID,0,VALID,100,VALID,-0.0169808,VALID,19.3689,VALID,35,VALID,0,
2008-10-14, 01:35:00,VALID,916.773,VALID,0,VALID,100,VALID,0.0339617,VALID,19.3354,VALID,28,VALID,0,
2008-10-14, 01:36:00,VALID,916.763,VALID,0,VALID,100,VALID,0,VALID,19.3192,VALID,33,VALID,0,
2008-10-14, 01:37:00,VALID,916.765,VALID,0,VALID,100,VALID,0.0169808,VALID,19.2805,VALID,20,VALID,0,
2008-10-14, 01:38:00,VALID,916.78,VALID,0,VALID,100,VALID,0,VALID,19.2578,VALID,45,VALID,0,
2008-10-14, 01:39:00,VALID,916.785,VALID,0,VALID,100,VALID,0,VALID,19.2256,VALID,30,VALID,0,
2008-10-14, 01:40:00,VALID,916.768,VALID,0,VALID,100,VALID,0,VALID,19.2059,VALID,48,VALID,0,
2008-10-14, 01:41:00,VALID,916.747,VALID,0,VALID,100,VALID,0.0169808,VALID,19.1832,VALID,54,VALID,0,
2008-10-14, 01:42:00,VALID,916.72,VALID,0,VALID,100,VALID,-0.0169808,VALID,19.164,VALID,54,VALID,0,
2008-10-14, 01:43:00,VALID,916.713,VALID,0,VALID,100,VALID,0,VALID,19.154,VALID,40,VALID,0,
2008-10-14, 01:44:00,VALID,916.696,VALID,0,VALID,100,VALID,0,VALID,19.144,VALID,45,VALID,0,
2008-10-14, 01:45:00,VALID,916.685,VALID,0,VALID,100,VALID,0,VALID,19.1575,VALID,46,VALID,0,
2008-10-14, 01:46:00,VALID,916.68,VALID,0,VALID,100,VALID,0.0169808,VALID,19.141,VALID,44,VALID,0,
2008-10-14, 01:47:00,VALID,916.681,VALID,0,VALID,100,VALID,0,VALID,19.1021,VALID,26,VALID,0,
2008-10-14, 01:48:00,VALID,916.68,VALID,0,VALID,100,VALID,0,VALID,19.1021,VALID,26,VALID,0,
2008-10-14, 01:49:00,VALID,916.679,VALID,0,VALID,100,VALID,-0.0169808,VALID,19.1121,VALID,32,VALID,0,
2008-10-14, 01:50:00,VALID,916.683,VALID,0,VALID,100,VALID,-0.0169808,VALID,19.0729,VALID,32,VALID,0,
2008-10-14, 01:51:00,VALID,916.669,VALID,0,VALID,100,VALID,0.0169808,VALID,19.0662,VALID,29,VALID,0,
2008-10-14, 01:52:00,VALID,916.646,VALID,0,VALID,100,VALID,0,VALID,19.0759,VALID,31,VALID,0,
2008-10-14, 01:53:00,VALID,916.618,VALID,0,VALID,100,VALID,0,VALID,19.0662,VALID,37,VALID,0,
2008-10-14, 01:54:00,VALID,916.596,VALID,0,VALID,100,VALID,0,VALID,19.0539,VALID,53,VALID,0,
2008-10-14, 01:55:00,VALID,916.561,VALID,0,VALID,100,VALID,0,VALID,19.0432,VALID,27,VALID,0,
2008-10-14, 01:56:00,VALID,916.534,VALID,0,VALID,100,VALID,0,VALID,19.0465,VALID,23,VALID,0,
2008-10-14, 01:57:00,VALID,916.501,VALID,0,VALID,100,VALID,-0.0169808,VALID,19.0537,VALID,48,VALID,0,
2008-10-14, 01:58:00,VALID,916.489,VALID,0,VALID,100,VALID,0.0169808,VALID,19.0465,VALID,55,VALID,0,
2008-10-14, 01:59:00,VALID,916.476,VALID,0,VALID,100,VALID,0,VALID,19.0402,VALID,62,VALID,0,
2008-10-14, 02:00:00,VALID,916.463,VALID,0,VALID,100,VALID,0,VALID,19.0213,VALID,72,VALID,0,
2008-10-14, 02:01:00,VALID,916.434,VALID,0,VALID,100,VALID,0.0339617,VALID,19.0046,VALID,65,VALID,0.261285,
2008-10-14, 02:02:00,VALID,916.428,VALID,0,VALID,100,VALID,0.0169808,VALID,18.9844,VALID,66,VALID,0,
2008-10-14, 02:03:00,VALID,916.397,VALID,0,VALID,100,VALID,-0.0169808,VALID,18.9916,VALID,73,VALID,0.306176,
2008-10-14, 02:04:00,VALID,916.372,VALID,0,VALID,100,VALID,-0.0679233,VALID,18.9928,VALID,68,VALID,0,
2008-10-14, 02:05:00,VALID,916.338,VALID,0,VALID,100,VALID,-0.101885,VALID,18.9998,VALID,67,VALID,0,
2008-10-14, 02:06:00,VALID,916.331,VALID,0,VALID,100,VALID,-0.101885,VALID,18.9998,VALID,67,VALID,0,
2008-10-14, 02:07:00,VALID,916.314,VALID,0,VALID,100,VALID,-0.101885,VALID,18.9963,VALID,67,VALID,0,
2008-10-14, 02:08:00,VALID,916.301,VALID,0,VALID,100,VALID,-0.0849042,VALID,19.0257,VALID,67,VALID,0,
2008-10-14, 02:09:00,VALID,916.282,VALID,0,VALID,100,VALID,-0.101885,VALID,19.0549,VALID,67,VALID,0,
2008-10-14, 02:10:00,VALID,916.281,VALID,0,VALID,100,VALID,-0.101885,VALID,19.0482,VALID,67,VALID,0,
2008-10-14, 02:11:00,VALID,916.282,VALID,0,VALID,100,VALID,-0.101885,VALID,19.0352,VALID,67,VALID,0,
2008-10-14, 02:12:00,VALID,916.262,VALID,0,VALID,100,VALID,-0.101885,VALID,19.0389,VALID,67,VALID,0,
2008-10-14, 02:13:00,VALID,916.257,VALID,0,VALID,100,VALID,-0.0849042,VALID,19.0517,VALID,67,VALID,0,
2008-10-14, 02:14:00,VALID,916.258,VALID,0,VALID,100,VALID,-0.118866,VALID,19.0584,VALID,67,VALID,0,
2008-10-14, 02:15:00,VALID,916.25,VALID,0.2,VALID,100,VALID,-0.0849042,VALID,19.0614,VALID,67,VALID,0,
2008-10-14, 02:16:00,VALID,916.247,VALID,0,VALID,100,VALID,0,VALID,19.0567,VALID,67,VALID,0,
2008-10-14, 02:17:00,VALID,916.247,VALID,0,VALID,100,VALID,0,VALID,19.0569,VALID,67,VALID,0,
2008-10-14, 02:18:00,VALID,916.274,VALID,0,VALID,100,VALID,0,VALID,19.0699,VALID,67,VALID,0,
2008-10-14, 02:19:00,VALID,916.269,VALID,0,VALID,100,VALID,-0.0679233,VALID,19.0634,VALID,67,VALID,0,
2008-10-14, 02:20:00,VALID,916.267,VALID,0,VALID,100,VALID,-0.0509425,VALID,19.047,VALID,67,VALID,0,
2008-10-14, 02:21:00,VALID,916.266,VALID,0,VALID,100,VALID,-0.0679233,VALID,19.0375,VALID,74,VALID,0,
2008-10-14, 02:22:00,VALID,916.266,VALID,0,VALID,100,VALID,-0.0679233,VALID,19.0315,VALID,117,VALID,0,
2008-10-14, 02:23:00,VALID,916.262,VALID,0,VALID,100,VALID,-0.0509425,VALID,18.999,VALID,117,VALID,0,
2008-10-14, 02:24:00,VALID,916.244,VALID,0,VALID,100,VALID,-0.0849042,VALID,18.9636,VALID,117,VALID,0,
2008-10-14, 02:25:00,VALID,916.223,VALID,0,VALID,100,VALID,-0.0849042,VALID,18.9411,VALID,117,VALID,0,
2008-10-14, 02:26:00,VALID,916.207,VALID,0,VALID,100,VALID,-0.0509425,VALID,18.9311,VALID,117,VALID,0,
2008-10-14, 02:27:00,VALID,916.211,VALID,0,VALID,100,VALID,-0.0509425,VALID,18.9309,VALID,117,VALID,0,
2008-10-14, 02:28:00,VALID,916.205,VALID,0,VALID,100,VALID,-0.0849042,VALID,18.9478,VALID,117,VALID,0,
2008-10-14, 02:29:00,VALID,916.201,VALID,0,VALID,100,VALID,-0.0849042,VALID,18.9603,VALID,118,VALID,0,
2008-10-14, 02:30:00,VALID,916.191,VALID,0,VALID,100,VALID,-0.0849042,VALID,18.9411,VALID,118,VALID,0.0119913,
2008-10-14, 02:31:00,VALID,916.193,VALID,0,VALID,100,VALID,-0.0679233,VALID,18.9182,VALID,119,VALID,0,
2008-10-14, 02:32:00,VALID,916.2,VALID,0,VALID,100,VALID,-0.101885,VALID,18.9015,VALID,130,VALID,0,
2008-10-14, 02:33:00,VALID,916.182,VALID,0,VALID,100,VALID,-0.0849042,VALID,18.9112,VALID,158,VALID,0.000952744,
2008-10-14, 02:34:00,VALID,916.172,VALID,0,VALID,100,VALID,-0.0339617,VALID,18.9175,VALID,171,VALID,0.226362,
2008-10-14, 02:35:00,VALID,916.172,VALID,0,VALID,100,VALID,-0.0679233,VALID,18.9209,VALID,149,VALID,0,
2008-10-14, 02:36:00,VALID,916.159,VALID,0,VALID,100,VALID,-0.0339617,VALID,18.9172,VALID,152,VALID,0,
2008-10-14, 02:37:00,VALID,916.146,VALID,0,VALID,100,VALID,-0.0339617,VALID,18.9207,VALID,157,VALID,0,
2008-10-14, 02:38:00,VALID,916.132,VALID,0,VALID,100,VALID,-0.0339617,VALID,18.9175,VALID,163,VALID,0,
2008-10-14, 02:39:00,VALID,916.115,VALID,0,VALID,100,VALID,0,VALID,18.9207,VALID,164,VALID,0.187682,
2008-10-14, 02:40:00,VALID,916.101,VALID,0,VALID,100,VALID,-0.0509425,VALID,18.9175,VALID,147,VALID,0,
2008-10-14, 02:41:00,VALID,916.09,VALID,0,VALID,100,VALID,-0.0509425,VALID,18.911,VALID,139,VALID,0.00117188,
2008-10-14, 02:42:00,VALID,916.074,VALID,0,VALID,100,VALID,-0.0509425,VALID,18.8982,VALID,122,VALID,0,
2008-10-14, 02:43:00,VALID,916.062,VALID,0,VALID,100,VALID,-0.0509425,VALID,18.8758,VALID,125,VALID,0,
2008-10-14, 02:44:00,VALID,916.051,VALID,0,VALID,100,VALID,-0.0169808,VALID,18.8688,VALID,128,VALID,0.0470526,
2008-10-14, 02:45:00,VALID,916.051,VALID,0,VALID,100,VALID,-0.0339617,VALID,18.8688,VALID,138,VALID,0.445139,
2008-10-14, 02:46:00,VALID,916.035,VALID,0,VALID,100,VALID,-0.0509425,VALID,18.8688,VALID,141,VALID,0.320482,
2008-10-14, 02:47:00,VALID,916.03,VALID,0,VALID,100,VALID,-0.0679233,VALID,18.8688,VALID,148,VALID,0.127841,
2008-10-14, 02:48:00,VALID,916.003,VALID,0,VALID,100,VALID,-0.0679233,VALID,18.8591,VALID,146,VALID,0.617773,
2008-10-14, 02:49:00,VALID,915.997,VALID,0,VALID,100,VALID,-0.0339617,VALID,18.8558,VALID,152,VALID,0.320499,
2008-10-14, 02:50:00,VALID,915.977,VALID,0,VALID,100,VALID,-0.0679233,VALID,18.8593,VALID,154,VALID,0.0181021,
2008-10-14, 02:51:00,VALID,915.966,VALID,0,VALID,100,VALID,-0.0679233,VALID,18.8558,VALID,146,VALID,0.211632,
2008-10-14, 02:52:00,VALID,915.954,VALID,0,VALID,100,VALID,-0.0509425,VALID,18.8693,VALID,143,VALID,0.999653,
2008-10-14, 02:53:00,VALID,915.951,VALID,0,VALID,100,VALID,-0.0679233,VALID,18.8595,VALID,137,VALID,0.00855655,
2008-10-14, 02:54:00,VALID,915.953,VALID,0,VALID,100,VALID,-0.0509425,VALID,18.8593,VALID,134,VALID,0.106399,
2008-10-14, 02:55:00,VALID,915.961,VALID,0,VALID,100,VALID,-0.0509425,VALID,18.8623,VALID,132,VALID,0.185865,
2008-10-14, 02:56:00,VALID,915.981,VALID,0,VALID,100,VALID,-0.0339617,VALID,18.8621,VALID,138,VALID,0.170015,
2008-10-14, 02:57:00,VALID,915.984,VALID,0,VALID,100,VALID,-0.0169808,VALID,18.8723,VALID,135,VALID,0.0275298,
2008-10-14, 02:58:00,VALID,915.988,VALID,0,VALID,100,VALID,-0.0339617,VALID,18.8755,VALID,133,VALID,0.115916,
2008-10-14, 02:59:00,VALID,916.002,VALID,0,VALID,100,VALID,-0.0509425,VALID,18.8656,VALID,135,VALID,0.0024858,
2008-10-14, 03:00:00,VALID,916.019,VALID,0,VALID,100,VALID,-0.0679233,VALID,18.8623,VALID,143,VALID,0.370536,
2008-10-14, 03:01:00,VALID,916.012,VALID,0,VALID,100,VALID,-0.0509425,VALID,18.892,VALID,150,VALID,0.655895,
2008-10-14, 03:02:00,VALID,916.026,VALID,0,VALID,100,VALID,-0.0679233,VALID,18.895,VALID,140,VALID,0.00247713,
2008-10-14, 03:03:00,VALID,916.01,VALID,0,VALID,100,VALID,-0.0169808,VALID,18.8818,VALID,136,VALID,0.205664,
2008-10-14, 03:04:00,VALID,916.005,VALID,0,VALID,100,VALID,-0.0509425,VALID,18.885,VALID,135,VALID,0.684152,
2008-10-14, 03:05:00,VALID,915.994,VALID,0,VALID,100,VALID,-0.0169808,VALID,18.8883,VALID,129,VALID,0.572917,
2008-10-14, 03:06:00,VALID,915.99,VALID,0,VALID,100,VALID,-0.0169808,VALID,18.895,VALID,147,VALID,0,
2008-10-14, 03:07:00,VALID,916,VALID,0,VALID,100,VALID,-0.0509425,VALID,18.8982,VALID,130,VALID,0,
2008-10-14, 03:08:00,VALID,915.99,VALID,0,VALID,100,VALID,-0.0509425,VALID,18.9045,VALID,134,VALID,0,
2008-10-14, 03:09:00,VALID,915.999,VALID,0,VALID,100,VALID,-0.0339617,VALID,18.9112,VALID,128,VALID,0,
2008-10-14, 03:10:00,VALID,915.997,VALID,0,VALID,100,VALID,-0.0169808,VALID,18.9172,VALID,132,VALID,0.0807884,
2008-10-14, 03:11:00,VALID,916.005,VALID,0,VALID,100,VALID,-0.0339617,VALID,18.9045,VALID,130,VALID,0,
2008-10-14, 03:12:00,VALID,916.024,VALID,0,VALID,100,VALID,-0.101885,VALID,18.9077,VALID,128,VALID,0,
2008-10-14, 03:13:00,VALID,916.015,VALID,0,VALID,100,VALID,0,VALID,18.9042,VALID,128,VALID,0,
2008-10-14, 03:14:00,VALID,916.013,VALID,0,VALID,100,VALID,-0.0509425,VALID,18.898,VALID,130,VALID,0,
2008-10-14, 03:15:00,VALID,916.008,VALID,0,VALID,100,VALID,0,VALID,18.9077,VALID,132,VALID,0,
2008-10-14, 03:16:00,VALID,916.01,VALID,0,VALID,100,VALID,-0.0169808,VALID,18.9172,VALID,132,VALID,0,
2008-10-14, 03:17:00,VALID,916.016,VALID,0,VALID,100,VALID,-0.0169808,VALID,18.9045,VALID,132,VALID,0,
2008-10-14, 03:18:00,VALID,916.028,VALID,0,VALID,100,VALID,-0.0509425,VALID,18.9112,VALID,132,VALID,0,
2008-10-14, 03:19:00,VALID,916.018,VALID,0,VALID,100,VALID,-0.0509425,VALID,18.9012,VALID,132,VALID,0,
2008-10-14, 03:20:00,VALID,916.025,VALID,0,VALID,100,VALID,-0.0169808,VALID,18.9237,VALID,132,VALID,0,
2008-10-14, 03:21:00,VALID,916.036,VALID,0,VALID,100,VALID,0,VALID,18.9195,VALID,152,VALID,0.24628,
2008-10-14, 03:22:00,VALID,916.031,VALID,0,VALID,100,VALID,0,VALID,18.9292,VALID,174,VALID,0,
2008-10-14, 03:23:00,VALID,916.023,VALID,0,VALID,100,VALID,-0.0169808,VALID,18.9462,VALID,174,VALID,0,
2008-10-14, 03:24:00,VALID,916.01,VALID,0,VALID,100,VALID,0,VALID,18.9559,VALID,181,VALID,0,
2008-10-14, 03:25:00,VALID,916.015,VALID,0,VALID,100,VALID,0,VALID,18.9659,VALID,187,VALID,0,
2008-10-14, 03:26:00,VALID,916.01,VALID,0,VALID,100,VALID,0,VALID,18.9654,VALID,187,VALID,0,
2008-10-14, 03:27:00,VALID,916.004,VALID,0,VALID,100,VALID,-0.0339617,VALID,18.9721,VALID,187,VALID,0,
2008-10-14, 03:28:00,VALID,916.007,VALID,0,VALID,100,VALID,0,VALID,18.9462,VALID,187,VALID,0,
2008-10-14, 03:29:00,VALID,916.002,VALID,0,VALID,100,VALID,0,VALID,18.9661,VALID,187,VALID,0,
2008-10-14, 03:30:00,VALID,916.004,VALID,0,VALID,100,VALID,0.0169808,VALID,18.9591,VALID,187,VALID,0,
2008-10-14, 03:31:00,VALID,916.01,VALID,0,VALID,100,VALID,0.0169808,VALID,18.9424,VALID,187,VALID,0,
2008-10-14, 03:32:00,VALID,916.01,VALID,0,VALID,100,VALID,-0.0169808,VALID,18.9332,VALID,187,VALID,0,
2008-10-14, 03:33:00,VALID,916.006,VALID,0,VALID,100,VALID,0.0169808,VALID,18.9399,VALID,187,VALID,0,
2008-10-14, 03:34:00,VALID,916.019,VALID,0,VALID,100,VALID,0.0169808,VALID,18.9297,VALID,187,VALID,0,
2008-10-14, 03:35:00,VALID,916.014,VALID,0,VALID,100,VALID,0.0339617,VALID,18.9172,VALID,187,VALID,0,
2008-10-14, 03:36:00,VALID,916.012,VALID,0,VALID,100,VALID,0,VALID,18.9137,VALID,187,VALID,0,
2008-10-14, 03:37:00,VALID,916.004,VALID,0,VALID,100,VALID,0,VALID,18.9068,VALID,187,VALID,0,
2008-10-14, 03:38:00,VALID,915.998,VALID,0,VALID,100,VALID,0.0169808,VALID,18.9038,VALID,187,VALID,0,
2008-10-14, 03:39:00,VALID,915.998,VALID,0,VALID,100,VALID,-0.0169808,VALID,18.8878,VALID,187,VALID,0,
2008-10-14, 03:40:00,VALID,916,VALID,0,VALID,100,VALID,0,VALID,18.8678,VALID,187,VALID,0,
2008-10-14, 03:41:00,VALID,916.001,VALID,0,VALID,100,VALID,0,VALID,18.8523,VALID,187,VALID,0,
2008-10-14, 03:42:00,VALID,915.982,VALID,0,VALID,100,VALID,0,VALID,18.8129,VALID,187,VALID,0,
2008-10-14, 03:43:00,VALID,915.995,VALID,0,VALID,100,VALID,-0.0169808,VALID,18.8162,VALID,187,VALID,0,
2008-10-14, 03:44:00,VALID,915.995,VALID,0,VALID,100,VALID,0.0169808,VALID,18.8092,VALID,187,VALID,0,
2008-10-14, 03:45:00,VALID,916,VALID,0,VALID,100,VALID,0.0509425,VALID,18.8162,VALID,187,VALID,0,
2008-10-14, 03:46:00,VALID,916.01,VALID,0,VALID,100,VALID,0,VALID,18.8199,VALID,187,VALID,0,